cover

 

Get it on iTunes StoreListen on Apple Music

Flower Power

#Trackname / Key / BPM / Publish dateArtists, Remixers / Label
1 123 bpm, 8B / C major, 2018-07-13, Electronica,  0  23
2 126 bpm, 3A / Bb minor, 2018-07-13, House,  0  23
3 126 bpm, 11A / F# minor, 2018-07-13, Tech House,  1  23
4 124 bpm, 11B / A major, 2018-07-13, Techno,  0  23
5 123 bpm, 6B / Bb major, 2018-07-13, Tech House,  0  23
6 123 bpm, 5B / Eb major, 2018-07-13, Tech House,  0  23
7 124 bpm, 6B / Bb major, 2018-07-13, Tech House,  0  23
8 123 bpm, 3A / Bb minor, 2018-07-13, Tech House,  0  23
9 123 bpm, 10B / D major, 2018-07-13, Tech House,  0  23
10 122 bpm, 8A / A minor, 2018-07-13, Tech House,  0  23
11 121 bpm, 7A / D minor, 2018-07-13, Techno,  0  23
12 126 bpm, 8A / A minor, 2018-07-13, Tech House,  0  23
13 124 bpm, 8A / A minor, 2018-07-13, Tech House,  0  23
14 125 bpm, 8A / A minor, 2018-07-13, Tech House,  0  23
15 125 bpm, 7A / D minor, 2018-07-13, Techno,  0  23
16 124 bpm, 6A / G minor, 2018-07-13, Progressive House,  0  23
17 120 bpm, 9A / E minor, 2018-07-13, Techno,  0  23
18 118 bpm, 8A / A minor, 2018-07-13, Techno,  0  23
19 124 bpm, 7A / D minor, 2018-07-13, Tech House,  0  23
20 123 bpm, 7B / F major, 2018-07-13, Progressive House,  0  23
21 122 bpm, 11A / F# minor, 2018-07-13, Progressive House,  0  23
22 122 bpm, 7A / D minor, 2018-07-13, Techno,  0  23
23 125 bpm, 8A / A minor, 2018-07-13, Melodic House & Techno,  0  23
24 123 bpm, 3A / Bb minor, 2018-07-06, Tech House,  0  25
25 125 bpm, 7A / D minor, 2018-07-06, Minimal,  0  25
26 123 bpm, 12A / Db minor, 2018-07-06, Techno,  0  25
27 126 bpm, 7B / F major, 2018-07-06, Progressive House,  0  25
28 120 bpm, 8A / A minor, 2018-07-06, Melodic House & Techno,  0  25
29 124 bpm, 6A / G minor, 2018-07-06, Tech House,  0  25
30 124 bpm, 4B / Ab major, 2018-07-06, Techno,  0  25
31 130 bpm, 8A / A minor, 2018-07-06, Tech House,  0  25
32 123 bpm, 7B / F major, 2018-07-06, Progressive House,  0  25
33 125 bpm, 7A / D minor, 2018-07-06, Tech House,  0  25
34 122 bpm, 9A / E minor, 2018-07-06, Tech House,  0  25
35 125 bpm, 11B / A major, 2018-07-06, Techno,  0  25
36 123 bpm, 7A / D minor, 2018-07-06, Tech House,  0  25
37 125 bpm, 6B / Bb major, 2018-07-06, Progressive House,  0  25
38 125 bpm, 9A / E minor, 2018-07-06, Tech House,  0  25
39 125 bpm, 5A / C minor, 2018-07-06, Progressive House,  0  25
40 122 bpm, 3A / Bb minor, 2018-07-06, Progressive House,  0  25
41 124 bpm, 6B / Bb major, 2018-07-06, Tech House,  0  25
42 130 bpm, 7A / D minor, 2018-07-06, Progressive House,  0  25
43 125 bpm, 8A / A minor, 2018-07-06, Tech House,  0  25
44 126 bpm, 6A / G minor, 2018-07-06, Progressive House,  0  25
45 126 bpm, 3A / Bb minor, 2018-07-06, Progressive House,  0  25
46 127 bpm, 11A / F# minor, 2018-07-06, Progressive House,  0  25
47 126 bpm, 2A / Eb minor, 2018-07-06, Progressive House,  0  25
48 125 bpm, 7A / D minor, 2018-07-06, Progressive House,  0  25
49 123 bpm, 11A / F# minor, 2018-06-29, Indie Dance / Nu Disco,  0  21
50 124 bpm, 11B / A major, 2018-06-29, Indie Dance / Nu Disco,  0  21
51 125 bpm, 8A / A minor, 2018-06-29, Indie Dance / Nu Disco,  0  21
52 122 bpm, 12B / E major, 2018-06-29, Indie Dance / Nu Disco,  0  21
53 122 bpm, 12B / E major, 2018-06-29, Indie Dance / Nu Disco,  0  21
54 124 bpm, 10A / B minor, 2018-06-29, Indie Dance / Nu Disco,  0  21
55 110 bpm, 2A / Eb minor, 2018-06-29, Indie Dance / Nu Disco,  0  21
56 120 bpm, 10B / D major, 2018-06-29, Indie Dance / Nu Disco,  0  21
57 118 bpm, 7A / D minor, 2018-06-29, Indie Dance / Nu Disco,  0  21
58 120 bpm, 7A / D minor, 2018-06-29, Indie Dance / Nu Disco,  0  21
59 120 bpm, 8A / A minor, 2018-06-29, Indie Dance / Nu Disco,  0  21
60 128 bpm, 7B / F major, 2018-06-29, Indie Dance / Nu Disco,  0  21
61 115 bpm, 12B / E major, 2018-06-29, Indie Dance / Nu Disco,  0  21
62 112 bpm, 10A / B minor, 2018-06-29, Indie Dance / Nu Disco,  0  21
63 105 bpm, 12B / E major, 2018-06-29, Indie Dance / Nu Disco,  0  21
64 116 bpm, 7B / F major, 2018-06-29, Indie Dance / Nu Disco,  0  21
65 125 bpm, 1B / B major, 2018-06-29, Indie Dance / Nu Disco,  0  21
66 96 bpm, 8A / A minor, 2018-06-29, Indie Dance / Nu Disco,  0  21
67 116 bpm, 2A / Eb minor, 2018-06-29, Indie Dance / Nu Disco,  0  21
68 120 bpm, 7A / D minor, 2018-06-29, Indie Dance / Nu Disco,  0  21
69 119 bpm, 7B / F major, 2018-06-29, Indie Dance / Nu Disco,  0  21
70 124 bpm, 11B / A major, 2018-06-22, Progressive House,  0  18
71 124 bpm, 8A / A minor, 2018-06-22, Progressive House,  0  18
72 124 bpm, 8A / A minor, 2018-06-22, Progressive House,  0  18
73 135 bpm, 9B / G major, 2018-06-22, Techno,  0  18
74 128 bpm, 11B / A major, 2018-06-22, Techno,  0  18
75 125 bpm, 8A / A minor, 2018-06-22, Techno,  0  18
76 125 bpm, 8A / A minor, 2018-06-22, Techno,  1  18
77 125 bpm, 7A / D minor, 2018-06-22, Techno,  0  18
78 120 bpm, 8B / C major, 2018-06-22, Techno,  0  18
79 126 bpm, 8A / A minor, 2018-06-22, Techno,  0  18
80 125 bpm, 7B / F major, 2018-06-22, Techno,  0  18
81 120 bpm, 3A / Bb minor, 2018-06-22, Techno,  0  18
82 122 bpm, 8A / A minor, 2018-06-22, Tech House,  0  18
83 123 bpm, 10A / B minor, 2018-06-22, Tech House,  0  18
84 125 bpm, 10A / B minor, 2018-06-22, Tech House,  0  18
85 120 bpm, 6A / G minor, 2018-06-22, Progressive House,  0  18
86 128 bpm, 10B / D major, 2018-06-22, Techno,  0  18
87 128 bpm, 8B / C major, 2018-06-22, Techno,  0  18
88 125 bpm, 8A / A minor, 2018-06-18, Techno,  0  24
89 123 bpm, 11A / F# minor, 2018-06-18, Tech House,  0  24
90 123 bpm, 7B / F major, 2018-06-18, Minimal,  0  24
91 124 bpm, 5B / Eb major, 2018-06-18, Tech House,  0  24
92 122 bpm, 8B / C major, 2018-06-18, Tech House,  0  24
93 127 bpm, 11A / F# minor, 2018-06-18, Techno,  0  24
94 128 bpm, 5A / C minor, 2018-06-18, Tech House,  0  24
95 126 bpm, 9A / E minor, 2018-06-18, Melodic House & Techno,  0  24
96 124 bpm, 8A / A minor, 2018-06-18, Tech House,  0  24
97 124 bpm, 6A / G minor, 2018-06-18, Tech House,  0  24
98 122 bpm, 3A / Bb minor, 2018-06-18, Deep House,  0  24
99 122 bpm, 8A / A minor, 2018-06-18, Minimal,  0  24
100 122 bpm, 6A / G minor, 2018-06-18, Tech House,  0  24
×

Sign in

Sign in to access your personalized pages, follow artists and labels you love, and create playlists fromyour favorite tracks.

Please wait...